sat.trackr.live / text

‹ back to catalog

STARLINK-31146

NORAD 58769 · 2024-011E

PAYLOAD ACTIVE UNKNOWN

§ Identity

Operator
Country
US
Launch date
2024-01-14
Launch site
AFWTR
Launch vehicle
Mass (kg)
RCS (m²)

Purposes: comms

External: N2YO · Heavens-Above · Gunter

§ Orbital elements

Epoch: 2026-09-20T01:51:17.638272Z

Period
93.85 min
Inclination
53.1599°
Eccentricity
0.0001750
Mean motion
15.34433531 rev/d
Perigee alt
461.4 km
Apogee alt
463.8 km
Semi-major
6,840.7 km
B*
-2.6554e-4
RAAN
187.8104°
Arg perigee
103.0808°
Mean anomaly
257.0390°
Rev number
15,007

§ Raw data

STARLINK-311461 58769U 24011E   26263.07728748 -.00009347  00000+0 -26554-3 0  99942 58769  53.1599 187.8104 0001750 103.0808 257.0390 15.34433531150072

JSON: /api/v1/satellites/58769 · /tle

For live sub-satellite position, see the globe view (requires WebGL).

§ Visibility from observer

Set your observer location to see the next 7 days of passes ≥ 10°. The values pass through the URL so the page stays shareable.

No JS? Fill the form by hand. The geolocation button needs JavaScript.